When you browse on this site, cookies collect data to enhance your experience and personalize the content and advertising you see.
Visit our Privacy Policy to learn more. By continuing to use the site, you agree to this use of cookies and data.
  • In Romania
  • List of Countries
  • For 7 days
  • Water Temperature
  • Satellite Maps
  • Weather Map
  • Weather Widgets
  • user-avatar
    Login

    Hourly Weather Benguela

    Today, 16 June, Sunday

    Time Temperature Precipitation Wind Pressure Humidity
    00:00 +22°C° 0 mm 1 mps 761 mmHg 79%
    01:00 +21°C° 0 mm 2 mps 761 mmHg 77%
    02:00 +21°C° 0 mm 2 mps 761 mmHg 74%
    03:00 +20°C° 0 mm 2 mps 761 mmHg 71%
    04:00 +21°C° 0 mm 1 mps 760 mmHg 68%
    05:00 +21°C° 0 mm 1 mps 761 mmHg 65%
    06:00 +21°C° 0 mm 1 mps 761 mmHg 62%
    07:00 +22°C° 0 mm 1 mps 762 mmHg 56%
    08:00 +26°C° 0 mm 1 mps 762 mmHg 46%
    09:00 +29°C° 0 mm 1 mps 762 mmHg 37%
    10:00 +32°C° 0 mm 1 mps 762 mmHg 27%
    11:00 +34°C° 0 mm 2 mps 761 mmHg 28%
    12:00 +34°C° 0 mm 2 mps 760 mmHg 29%
    13:00 +35°C° 0 mm 3 mps 760 mmHg 30%
    14:00 +34°C° 0 mm 3 mps 759 mmHg 32%
    15:00 +33°C° 0 mm 3 mps 759 mmHg 33%
    16:00 +32°C° 0 mm 2 mps 759 mmHg 35%
    17:00 +29°C° 0 mm 2 mps 759 mmHg 44%
    18:00 +26°C° 0 mm 1 mps 760 mmHg 54%
    19:00 +23°C° 0 mm 1 mps 761 mmHg 63%
    20:00 +23°C° 0 mm 1 mps 761 mmHg 64%
    21:00 +23°C° 0 mm 1 mps 762 mmHg 64%
    22:00 +22°C° 0 mm 1 mps 762 mmHg 64%
    23:00 +22°C° 0 mm 1 mps 762 mmHg 60%

    Tomorrow, 17 June, Monday

    Time Temperature Precipitation Wind Pressure Humidity
    00:00 +22°C° 0 mm 1 mps 762 mmHg 56%
    01:00 +22°C° 0 mm 1 mps 762 mmHg 52%
    02:00 +22°C° 0 mm 1 mps 762 mmHg 52%
    03:00 +22°C° 0 mm 1 mps 762 mmHg 53%
    04:00 +21°C° 0 mm 1 mps 761 mmHg 53%
    05:00 +22°C° 0 mm 1 mps 762 mmHg 52%
    06:00 +21°C° 0 mm 2 mps 762 mmHg 51%
    07:00 +21°C° 0 mm 2 mps 762 mmHg 49%
    08:00 +26°C° 0 mm 1 mps 762 mmHg 40%
    09:00 +30°C° 0 mm 1 mps 762 mmHg 32%
    10:00 +33°C° 0 mm 1 mps 762 mmHg 23%
    11:00 +35°C° 0 mm 2 mps 761 mmHg 22%
    12:00 +36°C° 0 mm 3 mps 761 mmHg 21%
    13:00 +36°C° 0 mm 4 mps 760 mmHg 19%
    14:00 +35°C° 0 mm 3 mps 760 mmHg 21%
    15:00 +35°C° 0 mm 3 mps 759 mmHg 22%
    16:00 +34°C° 0 mm 3 mps 759 mmHg 24%
    17:00 +29°C° 0 mm 3 mps 759 mmHg 33%
    18:00 +26°C° 0 mm 2 mps 760 mmHg 43%
    19:00 +23°C° 0 mm 2 mps 760 mmHg 52%
    20:00 +23°C° 0 mm 2 mps 760 mmHg 51%
    21:00 +23°C° 0 mm 1 mps 761 mmHg 51%
    22:00 +22°C° 0 mm 1 mps 761 mmHg 51%
    23:00 +22°C° 0 mm 1 mps 761 mmHg 50%

    Day after tomorrow, 18 June, Tuesday

    Time Temperature Precipitation Wind Pressure Humidity
    00:00 +22°C° 0 mm 1 mps 761 mmHg 49%
    01:00 +22°C° 0 mm 1 mps 761 mmHg 48%
    02:00 +21°C° 0 mm 1 mps 761 mmHg 49%
    03:00 +20°C° 0 mm 2 mps 761 mmHg 49%
    04:00 +20°C° 0 mm 2 mps 761 mmHg 49%
    05:00 +20°C° 0 mm 2 mps 761 mmHg 48%
    06:00 +21°C° 0 mm 2 mps 762 mmHg 46%
    07:00 +21°C° 0 mm 2 mps 762 mmHg 44%
    08:00 +25°C° 0 mm 1 mps 762 mmHg 37%
    09:00 +29°C° 0 mm 1 mps 762 mmHg 30%
    10:00 +32°C° 0 mm 1 mps 762 mmHg 23%
    11:00 +33°C° 0 mm 1 mps 761 mmHg 24%
    12:00 +34°C° 0 mm 2 mps 760 mmHg 25%
    13:00 +35°C° 0 mm 3 mps 760 mmHg 26%
    14:00 +34°C° 0 mm 3 mps 759 mmHg 29%
    15:00 +33°C° 0 mm 3 mps 759 mmHg 33%
    16:00 +31°C° 0 mm 3 mps 759 mmHg 36%
    17:00 +28°C° 0 mm 2 mps 759 mmHg 46%
    18:00 +26°C° 0 mm 1 mps 760 mmHg 56%
    19:00 +23°C° 0 mm 1 mps 760 mmHg 66%
    20:00 +23°C° 0 mm 1 mps 760 mmHg 64%
    21:00 +23°C° 0 mm 1 mps 761 mmHg 61%
    22:00 +23°C° 0 mm 1 mps 761 mmHg 59%
    23:00 +23°C° 0 mm 1 mps 761 mmHg 58%

    19 June, Wednesday

    Time Temperature Precipitation Wind Pressure Humidity
    00:00 +23°C° 0 mm 1 mps 761 mmHg 56%
    01:00 +22°C° 0 mm 1 mps 761 mmHg 55%
    02:00 +22°C° 0 mm 1 mps 761 mmHg 58%
    03:00 +21°C° 0 mm 1 mps 761 mmHg 62%
    04:00 +21°C° 0 mm 1 mps 761 mmHg 66%
    05:00 +21°C° 0 mm 1 mps 761 mmHg 61%
    06:00 +22°C° 0 mm 1 mps 761 mmHg 55%
    07:00 +23°C° 0 mm 1 mps 762 mmHg 50%
    08:00 +26°C° 0 mm 2 mps 762 mmHg 43%
    09:00 +29°C° 0 mm 2 mps 762 mmHg 35%
    10:00 +32°C° 0 mm 2 mps 762 mmHg 28%
    11:00 +34°C° 0 mm 3 mps 761 mmHg 29%
    12:00 +35°C° 0 mm 3 mps 761 mmHg 30%
    13:00 +36°C° 0 mm 3 mps 760 mmHg 32%
    14:00 +34°C° 0 mm 3 mps 759 mmHg 36%
    15:00 +33°C° 0 mm 3 mps 759 mmHg 40%
    16:00 +31°C° 0 mm 3 mps 759 mmHg 43%
    17:00 +29°C° 0 mm 3 mps 759 mmHg 55%
    18:00 +26°C° 0 mm 2 mps 760 mmHg 67%
    19:00 +23°C° 0 mm 2 mps 760 mmHg 78%
    20:00 +23°C° 0 mm 2 mps 761 mmHg 77%
    21:00 +23°C° 0 mm 2 mps 761 mmHg 76%
    22:00 +23°C° 0 mm 2 mps 762 mmHg 74%
    23:00 +23°C° 0 mm 2 mps 762 mmHg 70%

    20 June, Thursday

    Time Temperature Precipitation Wind Pressure Humidity
    00:00 +23°C° 0 mm 2 mps 762 mmHg 66%
    01:00 +23°C° 0 mm 1 mps 762 mmHg 62%
    02:00 +22°C° 0 mm 1 mps 761 mmHg 61%
    03:00 +22°C° 0 mm 1 mps 761 mmHg 61%
    04:00 +22°C° 0 mm 1 mps 761 mmHg 60%
    05:00 +22°C° 0 mm 1 mps 761 mmHg 56%
    06:00 +22°C° 0 mm 1 mps 761 mmHg 53%
    07:00 +23°C° 0 mm 1 mps 761 mmHg 49%
    08:00 +26°C° 0 mm 2 mps 762 mmHg 40%
    09:00 +30°C° 0 mm 2 mps 762 mmHg 31%
    10:00 +34°C° 0 mm 2 mps 762 mmHg 22%
    11:00 +35°C° 0 mm 3 mps 761 mmHg 24%
    12:00 +35°C° 0 mm 3 mps 760 mmHg 27%
    13:00 +36°C° 0 mm 4 mps 759 mmHg 29%
    14:00 +35°C° 0 mm 3 mps 759 mmHg 34%
    15:00 +33°C° 0 mm 3 mps 759 mmHg 39%
    16:00 +31°C° 0 mm 2 mps 758 mmHg 44%
    17:00 +28°C° 0 mm 2 mps 759 mmHg 56%
    18:00 +26°C° 0 mm 1 mps 759 mmHg 68%
    19:00 +21°C° 0 mm 0 mps 760 mmHg 80%
    20:00 +21°C° 0 mm 0 mps 760 mmHg 76%
    21:00 +23°C° 0 mm 1 mps 761 mmHg 73%
    22:00 +23°C° 0 mm 1 mps 761 mmHg 69%
    23:00 +23°C° 0 mm 1 mps 761 mmHg 65%

    21 June, Friday

    Time Temperature Precipitation Wind Pressure Humidity
    00:00 +23°C° 0 mm 1 mps 761 mmHg 61%
    01:00 +23°C° 0 mm 1 mps 761 mmHg 56%
    02:00 +23°C° 0 mm 1 mps 760 mmHg 56%
    03:00 +23°C° 0 mm 1 mps 760 mmHg 56%
    04:00 +22°C° 0 mm 1 mps 760 mmHg 56%
    05:00 +22°C° 0 mm 1 mps 760 mmHg 53%
    06:00 +22°C° 0 mm 1 mps 761 mmHg 51%
    07:00 +22°C° 0 mm 1 mps 761 mmHg 48%
    08:00 +26°C° 0 mm 1 mps 761 mmHg 41%
    09:00 +29°C° 0 mm 2 mps 761 mmHg 33%
    10:00 +32°C° 0 mm 2 mps 761 mmHg 26%
    11:00 +34°C° 0 mm 3 mps 760 mmHg 28%
    12:00 +35°C° 0 mm 3 mps 759 mmHg 30%
    13:00 +35°C° 0 mm 4 mps 759 mmHg 32%
    14:00 +34°C° 0 mm 4 mps 758 mmHg 38%
    15:00 +33°C° 0 mm 3 mps 758 mmHg 45%
    16:00 +30°C° 0 mm 3 mps 757 mmHg 52%
    17:00 +28°C° 0 mm 2 mps 758 mmHg 64%
    18:00 +25°C° 0 mm 1 mps 758 mmHg 76%
    19:00 +22°C° 0 mm 1 mps 759 mmHg 88%
    20:00 +22°C° 0 mm 1 mps 759 mmHg 87%
    21:00 +22°C° 0 mm 1 mps 760 mmHg 85%
    22:00 +22°C° 0 mm 1 mps 760 mmHg 83%
    23:00 +22°C° 0 mm 1 mps 760 mmHg 80%
    Show more